User: anonymous   Login
Location: Wawayanda State Park
(41.1833°N, 74.4333°W)
Time: 09:10:59
(UTC-05:00)
Language:

RESURS DK-1 - Orbit

View from above orbital plane
View from above orbital plane
View from above satellite
View from above satellite

Ground track
Ground track

The orbit data is extracted from the following two-line orbital elements,

1 29228U 06021A   15028.23849351  .00000875  00000-0  75545-4 0  6507
2 29228 069.9387 152.7016 0007834 247.8015 112.2317 15.01198381477347
Epoch (UTC): 28 January 2015 05:43:25
Eccentricity: 0.0007834
inclination: 69.9387°
perigee height: 558 km
apogee height: 568 km
right ascension of ascending node: 152.7016°
argument of perigee: 247.8015°
revolutions per day: 15.01198381
mean anomaly at epoch: 112.2317°
orbit number at epoch: 47734

The dashed part of the orbit path shows where the satellite is in the earth's shadow,  

DLR